sat.trackr.live / text

‹ back to catalog

STARLINK-31737

NORAD 59537 · 2024-074D

PAYLOAD ACTIVE UNKNOWN

§ Identity

Operator
Country
US
Launch date
2024-04-18
Launch site
AFETR
Launch vehicle
Mass (kg)
RCS (m²)

Purposes: comms

External: N2YO · Heavens-Above · Gunter

§ Orbital elements

Epoch: 2026-05-25T01:13:25.212000Z

Period
94.27 min
Inclination
43.0009°
Eccentricity
0.0000454
Mean motion
15.27600059 rev/d
Perigee alt
482.7 km
Apogee alt
483.3 km
Semi-major
6,861.1 km
B*
6.2560e-4
RAAN
272.2027°
Arg perigee
300.2999°
Mean anomaly
59.7808°
Rev number
11,769

§ Raw data

STARLINK-317371 59537U 24074D   26145.05098625  .00017003  00000+0  62560-3 0  99912 59537  43.0009 272.2027 0000454 300.2999  59.7808 15.27600059117690

JSON: /api/v1/satellites/59537 · /tle

For live sub-satellite position, see the globe view (requires WebGL).

§ Visibility from observer

Set your observer location to see the next 7 days of passes ≥ 10°. The values pass through the URL so the page stays shareable.

No JS? Fill the form by hand. The geolocation button needs JavaScript.